TimeEST,TemperatureF,Dew PointF,Humidity,Sea Level PressureIn,VisibilityMPH,Wind Direction,Wind SpeedMPH,Gust SpeedMPH,PrecipitationIn,Events,Conditions,WindDirDegrees,DateUTC
12:48 AM,73.4,71.6,94,30.04,8.0,Calm,Calm,-,N/A,,Mostly Cloudy,0,2012-12-09 05:48:00
12:53 AM,73.9,72.0,93,30.04,8.0,Calm,Calm,-,N/A,,Mostly Cloudy,0,2012-12-09 05:53:00
1:01 AM,73.4,71.6,94,30.03,8.0,Calm,Calm,-,N/A,,Scattered Clouds,0,2012-12-09 06:01:00
1:39 AM,73.4,71.6,94,30.03,7.0,Calm,Calm,-,N/A,,Mostly Cloudy,0,2012-12-09 06:39:00
1:53 AM,73.0,71.1,93,30.04,8.0,Calm,Calm,-,N/A,,Mostly Cloudy,0,2012-12-09 06:53:00
2:49 AM,73.4,71.6,94,30.03,8.0,Calm,Calm,-,N/A,,Overcast,0,2012-12-09 07:49:00
2:53 AM,73.0,72.0,96,30.03,8.0,Calm,Calm,-,N/A,,Overcast,0,2012-12-09 07:53:00
3:11 AM,71.6,71.6,100,30.02,7.0,Calm,Calm,-,N/A,,Scattered Clouds,0,2012-12-09 08:11:00
3:33 AM,71.6,71.6,100,30.03,7.0,Calm,Calm,-,0.00,,Mostly Cloudy,0,2012-12-09 08:33:00
3:53 AM,73.0,71.1,93,30.03,7.0,Calm,Calm,-,0.00,,Mostly Cloudy,0,2012-12-09 08:53:00
4:14 AM,71.6,71.6,100,30.03,6.0,Calm,Calm,-,N/A,,Scattered Clouds,0,2012-12-09 09:14:00
4:53 AM,71.1,70.0,96,30.04,6.0,NNW,3.5,-,N/A,,Scattered Clouds,330,2012-12-09 09:53:00
5:10 AM,71.6,71.6,100,30.04,6.0,Calm,Calm,-,N/A,,Mostly Cloudy,0,2012-12-09 10:10:00
5:17 AM,71.6,71.6,100,30.04,5.0,Calm,Calm,-,N/A,,Mostly Cloudy,0,2012-12-09 10:17:00
5:27 AM,71.6,71.6,100,30.04,6.0,NW,3.5,-,N/A,,Mostly Cloudy,320,2012-12-09 10:27:00
5:36 AM,71.6,69.8,94,30.04,6.0,Calm,Calm,-,N/A,,Scattered Clouds,0,2012-12-09 10:36:00
5:53 AM,70.0,70.0,100,30.05,5.0,Calm,Calm,-,N/A,,Clear,0,2012-12-09 10:53:00
6:53 AM,70.0,69.1,97,30.06,5.0,Calm,Calm,-,N/A,,Clear,0,2012-12-09 11:53:00
7:53 AM,70.0,69.1,97,30.08,4.0,Calm,Calm,-,N/A,,Partly Cloudy,0,2012-12-09 12:53:00
8:53 AM,75.9,73.0,91,30.10,6.0,North,3.5,-,N/A,,Mostly Cloudy,10,2012-12-09 13:53:00
9:12 AM,75.2,73.4,94,30.10,7.0,Calm,Calm,-,N/A,,Mostly Cloudy,0,2012-12-09 14:12:00
9:23 AM,78.8,75.2,89,30.10,8.0,Calm,Calm,-,N/A,,Mostly Cloudy,0,2012-12-09 14:23:00
9:53 AM,79.0,73.9,84,30.11,8.0,Calm,Calm,-,N/A,,Partly Cloudy,0,2012-12-09 14:53:00
10:53 AM,80.1,72.0,76,30.10,9.0,East,4.6,-,N/A,,Mostly Cloudy,100,2012-12-09 15:53:00
11:27 AM,80.6,71.6,74,30.09,9.0,Calm,Calm,-,N/A,,Overcast,0,2012-12-09 16:27:00
11:50 AM,78.8,73.4,83,30.08,5.0,Calm,Calm,-,0.02,,Haze,0,2012-12-09 16:50:00
11:53 AM,80.1,73.0,79,30.08,5.0,Calm,Calm,-,0.02,,Haze,0,2012-12-09 16:53:00
12:53 PM,80.1,73.0,79,30.05,9.0,Calm,Calm,-,N/A,,Overcast,0,2012-12-09 17:53:00
1:48 PM,84.2,73.4,70,30.02,10.0,ESE,10.4,-,N/A,,Scattered Clouds,120,2012-12-09 18:48:00
1:53 PM,84.0,72.0,67,30.02,10.0,SE,9.2,-,N/A,,Mostly Cloudy,130,2012-12-09 18:53:00
2:53 PM,82.0,71.1,69,30.01,10.0,SSE,8.1,-,N/A,,Clear,160,2012-12-09 19:53:00
3:53 PM,82.9,70.0,65,30.01,10.0,SE,6.9,-,N/A,,Clear,140,2012-12-09 20:53:00
4:53 PM,81.0,71.1,72,30.02,10.0,SSE,6.9,-,N/A,,Clear,150,2012-12-09 21:53:00
5:53 PM,78.1,73.0,84,30.04,8.0,SE,8.1,-,N/A,,Clear,140,2012-12-09 22:53:00
6:53 PM,77.0,73.0,88,30.05,8.0,SE,5.8,-,N/A,,Clear,140,2012-12-09 23:53:00
7:53 PM,75.9,73.0,91,30.05,7.0,SE,3.5,-,N/A,,Clear,140,2012-12-10 00:53:00
8:53 PM,75.9,73.0,91,30.06,7.0,Calm,Calm,-,N/A,,Clear,0,2012-12-10 01:53:00
9:53 PM,75.0,72.0,90,30.06,6.0,SSE,3.5,-,N/A,,Clear,150,2012-12-10 02:53:00
10:53 PM,73.9,72.0,93,30.06,6.0,South,3.5,-,N/A,,Clear,170,2012-12-10 03:53:00
11:53 PM,73.9,72.0,93,30.05,6.0,Calm,Calm,-,N/A,,Clear,0,2012-12-10 04:53:00